This is the latest recevied weather packets stored in our database for station/object KH6DH-13. If no packets are shown the sender has not sent any weather packets the latest 10 day(s).
| Time | Temp. | Humidity | Pressure | Rain* | Wind** | Luminosity | Snow |
|---|---|---|---|---|---|---|---|
| 1788324639 | 26.11° C | - | - | 0.25 mm | 1.34 m/s, 66° | - | - |
| 1788324038 | 26.11° C | - | - | 0.25 mm | 1.34 m/s, 72° | - | - |
| 1788323437 | 26.11° C | - | - | 0 mm | 0.45 m/s, 328° | - | - |
| 1788322836 | 26.11° C | - | - | 0 mm | 1.79 m/s, 89° | - | - |
| 1788322235 | 26.67° C | - | - | 0 mm | 0.45 m/s, 298° | - | - |
| 1788321634 | 26.67° C | - | - | 0 mm | 0 m/s | - | - |
| 1788321033 | 27.22° C | - | - | 0 mm | 2.24 m/s, 44° | - | - |
| 1788320432 | 27.22° C | - | - | 0 mm | 2.68 m/s, 65° | - | - |
| 1788319831 | 27.78° C | - | - | 0.25 mm | 1.34 m/s, 113° | - | - |
| 1788319230 | 27.78° C | - | - | 0.25 mm | 1.79 m/s, 113° | - | - |
| 1788318629 | 27.78° C | - | - | 0.25 mm | 1.34 m/s, 118° | - | - |
| 1788318028 | 27.78° C | - | - | 0.25 mm | 1.79 m/s, 84° | - | - |
| 1788317427 | 28.33° C | - | - | 0.25 mm | 2.24 m/s, 105° | - | - |
| 1788316826 | 27.78° C | - | - | 0.25 mm | 1.79 m/s, 11° | - | - |
| 1788316225 | 27.78° C | - | - | 0 mm | 2.68 m/s, 221° | - | - |
| 1788315624 | 28.89° C | - | - | 0 mm | 2.24 m/s, 65° | - | - |
| 1788315023 | 28.89° C | - | - | 0 mm | 3.13 m/s, 132° | - | - |
| 1788314419 | 28.89° C | - | - | 0 mm | 2.24 m/s, 100° | - | - |
| 1788313816 | 29.44° C | - | - | 0 mm | 1.34 m/s, 27° | - | - |
| 1788313215 | 28.89° C | - | - | 0 mm | 1.79 m/s, 6° | - | - |
| 1788312614 | 30° C | - | - | 0 mm | 1.79 m/s, 38° | - | - |
| 1788312011 | 30.56° C | - | - | 0 mm | 1.34 m/s, 59° | - | - |
| 1788311410 | 30.56° C | - | - | 0 mm | 2.24 m/s, 125° | - | - |
| 1788310809 | 30.56° C | - | - | 0 mm | 2.68 m/s, 20° | - | - |
| 1788310208 | 31.11° C | - | - | 0 mm | 3.13 m/s, 129° | - | - |
* Rain latest hour (hover to see other rain measurements)
** Current wind speed in m/s (hover to see current wind gust speed)